Location: Steinbach
(49.5170°N, 96.6830°W)
Time: 02:14:13
(UTC-05:00)

Daily predictions for brighter satellites

Satellite Brightness Start Highest point End
(mag) Time Altitude Azimuth Time Altitude Azimuth Time Altitude Azimuth
CZ-2C R/B 3.5 00:00:05 10° NNE 00:04:26 35° E 00:04:26 35° E
CZ-2C R/B 3.1 00:07:29 58° ENE 00:07:29 58° ENE 00:12:05 10° N
Meteor 2-13 Rocket 4.4 00:08:12 64° SE 00:08:47 68° E 00:14:55 10° NNE
Cosmos 2219 Rocket 2.6 00:06:05 29° SW 00:08:53 59° WNW 00:14:29 10° NNE
Cosmos 972 Rocket 4.2 00:12:00 64° SW 00:12:55 82° WNW 00:19:08 10° NNE
Cosmos 1777 Rocket 3.9 00:11:17 10° NNW 00:16:35 80° ENE 00:16:36 80° ENE
SL-16 R/B 2.7 00:21:36 45° E 00:21:36 45° E 00:26:07 10° NE
Meteor 1-24 Rocket 4.1 00:15:14 10° N 00:20:56 53° ENE 00:21:25 51° E
deb Chang Zheng 4 4.0 00:18:01 10° NNE 00:21:45 61° N 00:21:45 61° N
Mayak 1.1 00:20:26 10° NE 00:21:40 15° ENE 00:21:40 15° ENE
DNEPR-1 R/B 4.4 00:21:54 10° NW 00:25:15 47° WNW 00:25:15 47° WNW
Cosmos 1606 Rocket 4.1 00:27:06 58° N 00:27:06 58° N 00:30:45 10° N
COSMOS 2428 4.3 00:21:37 10° WSW 00:26:46 33° NW 00:31:54 10° NNE
Meteor 2-5 Rocket 3.7 00:21:49 10° NNW 00:27:46 87° E 00:28:09 79° SSE
Cosmos 1943 Rocket 4.0 00:26:06 10° N 00:30:27 23° NE 00:33:00 17° ENE
ATLAS CENTAUR R/B 2.9 00:27:38 10° NW 00:29:33 29° NW 00:29:33 29° NW
H-2A R/B 4.5 00:30:09 10° WSW 00:31:41 11° W 00:33:14 10° WNW
Cosmos 2154 Rocket 4.5 00:31:52 44° E 00:31:58 45° E 00:37:48 10° NNE
Meteor 1-4 Rocket 4.4 00:35:13 30° NW 00:35:13 30° NW 00:37:59 10° N
Cosmos 2327 Rocket 4.4 00:36:00 73° SE 00:36:29 78° E 00:42:47 10° NNE
NOSS 0 Rocket 4.4 00:35:52 34° WSW 00:38:30 58° NW 00:44:41 10° NNE
Cosmos 2333 Rocket 3.1 00:36:58 27° WSW 00:39:38 45° NW 00:45:04 10° NNE
RESURS DK-1 3.6 00:48:12 41° N 00:48:12 41° N 00:51:12 10° NNE
Cosmos 2228 3.9 00:49:48 49° N 00:49:48 49° N 00:53:05 10° N
Cosmos 1707 4.5 00:45:58 10° NNW 00:48:14 30° NW 00:48:14 30° NW
Cosmos 2058 Rocket 3.9 00:54:16 49° NNW 00:54:16 49° NNW 00:57:36 10° N
COSMOS 2455 3.1 00:47:35 10° NW 00:53:12 56° WSW 00:53:12 56° WSW
Cosmos 2369 Rocket 2.9 00:48:50 10° NNW 00:54:21 46° NE 00:55:12 43° ENE
In-Cosmos 22 4.1 00:50:29 10° N 00:55:29 72° NE 00:55:29 72° NE
Cosmos 2237 Rocket 3.0 00:54:11 37° W 00:55:50 47° NW 01:01:18 10° NNE
Lacrosse 5 3.4 01:01:16 10° WNW 01:05:57 35° N 01:10:38 10° ENE
BREEZE-M DEB (TANK) 3.3 00:58:52 10° W 01:08:20 67° W 01:08:20 67° W
Cosmos 1898 Rocket 3.9 01:05:37 10° NNW 01:10:44 55° ENE 01:10:44 55° ENE
NOSS 2-2 (E) 4.4 01:16:40 52° NNE 01:16:40 52° NNE 01:20:45 10° NE
CENTAUR R/B 3.6 01:09:57 10° NW 01:17:10 40° WSW 01:17:39 40° SW
Cosmos 2184 Rocket 4.4 01:17:09 49° WSW 01:17:58 53° WNW 01:24:04 10° N
Cosmos 2074 Rocket 4.5 01:18:19 46° WSW 01:19:17 50° WNW 01:25:23 10° N
GEOS 3 Rocket 4.4 01:21:08 39° ENE 01:22:27 48° NE 01:27:33 10° NW
Nadezhda 3 Rocket 4.1 01:19:07 10° NNW 01:25:24 65° W 01:25:43 64° WSW
ALOS 2 4.1 01:28:48 30° WNW 01:28:48 30° WNW 01:31:33 10° NNW
USA 215 3.1 01:33:40 64° SE 01:34:48 87° SSW 01:41:24 10° WNW
Cosmos 2341 Rocket 3.8 01:36:08 83° SSW 01:36:25 89° W 01:42:42 10° N
Cosmos 2150 Rocket 4.3 01:34:25 10° NNW 01:39:17 62° NE 01:39:17 62° NE
Cosmos 1295 Rocket 4.3 01:42:36 83° S 01:42:52 89° E 01:49:08 10° N
CZ-2C R/B 3.5 01:40:24 10° N 01:45:23 39° WNW 01:45:57 38° W
Cosmos 2263 4.2 01:41:04 10° NNW 01:46:39 76° NE 01:46:39 76° NE
Cosmos 2298 Rocket 4.1 01:45:59 10° NNW 01:50:49 73° N 01:50:49 73° N
Okean 3 Rocket 4.5 01:48:56 10° NNW 01:52:16 48° NNW 01:52:16 48° NNW
Cosmos 1603 3.6 01:56:24 83° N 01:56:24 83° N 02:01:50 10° NNE
Cosmos 1470 4.5 01:58:17 30° NNE 01:58:17 30° NNE 02:00:28 10° NNE
Cosmos 2366 rocket 4.0 01:56:38 64° ESE 01:57:06 66° E 02:03:24 10° NNE
Cosmos 1727 Rocket 3.9 01:52:50 10° N 01:59:02 72° ENE 01:59:37 68° ESE
Mayak 0.1 01:55:26 10° N 01:58:19 36° NNW 01:58:19 36° NNW
SL-16 R/B 3.4 02:03:27 30° W 02:04:59 35° NW 02:10:10 10° NNE
CZ-4B R/B 4.2 02:09:56 15° NNW 02:09:56 15° NNW 02:10:31 10° NNW
Cosmos 371 Rocket 3.8 02:10:03 56° NE 02:10:03 56° NE 02:14:02 10° NNE
Cosmos 1766 Rocket 4.4 02:07:20 10° N 02:10:35 48° N 02:10:35 48° N
Cosmos 1943 Rocket 2.1 02:09:21 10° NNW 02:14:29 76° NW 02:14:29 76° NW
Cosmos 1656 Rocket 4.3 02:10:51 10° NNW 02:16:25 52° NE 02:18:11 38° ESE
Cosmos 1408 Rocket 4.4 02:12:36 10° N 02:15:49 48° N 02:15:49 48° N
Cosmos 1743 Rocket 4.5 02:13:55 10° N 02:17:46 45° NE 02:17:46 45° NE
SL-24 R/B - RUBIN 2 4.3 02:20:24 76° SSE 02:20:44 79° SE 02:26:48 10° NE
Meteor 2-14 Rocket 4.3 02:21:10 78° SSW 02:21:37 85° W 02:27:49 10° N
CZ-2D R/B 4.4 02:20:59 10° NE 02:23:48 14° E 02:25:45 12° ESE
ATLAS CENTAUR R/B 4.5 02:18:40 10° WNW 02:23:29 22° W 02:23:29 22° W
Cosmos 1959 Rocket 4.4 02:28:22 67° WSW 02:28:50 69° WNW 02:34:58 10° N
Cosmos 1953 3.9 02:30:44 30° NNW 02:30:44 30° NNW 02:33:14 10° N
SL-08 R/B 4.5 02:31:16 67° SW 02:32:04 76° W 02:38:34 10° N
Cosmos 1763 Rocket 3.5 02:36:04 71° ENE 02:36:04 71° ENE 02:40:51 10° NNE
Cosmos 2369 Rocket 3.3 02:33:06 10° NW 02:36:57 32° WNW 02:36:57 32° WNW
H-2A R/B 3.3 02:36:27 10° NNE 02:39:11 45° NNE 02:39:11 45° NNE
CZ-3A R/B 3.6 02:27:14 10° WNW 02:40:44 75° SW 02:43:26 35° SE
SL-8 Rocket 4.5 02:44:55 44° W 02:45:43 46° WNW 02:51:41 10° N
Gblst 52 Del rocket 4.1 02:46:22 72° S 02:46:34 73° SSE 02:52:15 10° ENE
PSLV R/B 3.9 02:42:58 10° NNE 02:47:06 68° NNW 02:47:06 68° NNW
Cosmos 1626 3.4 02:44:44 10° N 02:47:18 40° NNE 02:47:18 40° NNE
Cosmos 2058 3.5 02:45:26 10° N 02:48:55 54° NE 02:48:55 54° NE
Lacrosse 5 2.8 02:44:53 10° NW 02:49:48 46° NNE 02:54:42 10° E
PSLV R/B 4.4 02:51:28 58° NNE 02:51:28 58° NNE 02:54:52 10° N
SL-08 R/B 3.7 02:51:36 54° ESE 02:52:12 58° ENE 02:56:56 10° N
Cosmos-2242 3.6 02:53:55 53° NNW 02:53:55 53° NNW 02:57:36 10° N
Cosmos 1821 Rocket 4.3 02:51:44 47° SE 02:53:17 60° E 02:59:22 10° NNE
Cosmos 1943 3.3 02:54:00 58° W 02:54:41 63° WNW 03:00:21 10° NNE
Cosmos 1500 Rocket 3.7 02:57:12 10° N 03:01:06 68° NNW 03:01:06 68° NNW
Cosmos 1934 Rocket 4.4 03:00:36 40° SE 03:02:26 54° E 03:08:20 10° NNE
Cosmos 1125 Rocket 3.3 02:57:56 10° NNW 03:03:12 86° WSW 03:03:33 78° S
Cosmos 2098 Rocket 3.9 03:03:39 47° SE 03:04:35 53° E 03:09:03 10° NNE
COBE Rocket 3.9 02:59:49 10° NNE 03:04:54 74° E 03:05:16 70° SE
SL-16 R/B 2.9 03:04:43 27° SE 03:08:12 63° ENE 03:14:20 10° N
USA 229 DEB 3.7 03:02:24 10° NW 03:09:32 76° SW 03:14:06 25° SSE
USA 229 3.7 03:02:31 10° NW 03:09:39 77° SW 03:14:20 24° SSE
NOSS 3-1 (A) 4.4 03:07:08 10° NW 03:14:21 62° NE 03:22:29 10° ESE
USA 215 4.5 03:20:59 24° W 03:20:59 24° W 03:24:06 10° WNW
Cosmos 2221 3.0 03:20:44 49° ESE 03:21:10 51° E 03:25:23 10° NNE
Meteor 1-16 Rocket 4.5 03:23:17 50° WSW 03:24:20 57° WNW 03:30:04 10° N
ADEOS Rocket 2.6 03:19:37 10° NNE 03:25:09 90° E 03:26:26 56° SSW
Cosmos 1242 Rocket 3.4 03:26:07 46° NNW 03:26:07 46° NNW 03:28:46 10° N
Cosmos 841 Rocket 3.7 03:26:02 52° W 03:26:45 57° WNW 03:31:52 10° NNE
IRS-1C 4.4 03:21:58 10° NNE 03:27:17 62° ESE 03:28:50 43° SSE
NPP 3.6 03:24:58 10° NNE 03:30:23 86° ESE 03:31:41 54° S
Cosmos 1805 Rocket 3.8 03:25:58 10° N 03:30:25 65° ENE 03:31:26 48° SE
Cosmos 2151 3.9 03:31:13 10° NNW 03:34:20 36° WNW 03:34:20 36° WNW
Cosmos 2239 Rocket 4.5 03:34:18 47° SW 03:36:09 71° W 03:42:28 10° N
BREEZE-M DEB (TANK) 3.1 03:38:34 40° SE 03:38:34 40° SE 03:42:35 10° E
Cosmos 1400 Rocket 2.7 03:37:32 10° NNW 03:41:18 76° WNW 03:41:18 76° WNW
Cosmos 1703 4.5 03:38:24 10° NNW 03:41:00 31° WNW 03:41:00 31° WNW
USA 32 4.2 03:37:10 10° NNW 03:42:17 53° W 03:42:59 50° WSW
NOSS 3-1 (C) 3.9 03:35:06 10° NW 03:42:31 87° SW 03:50:50 10° SE
Resurs 1-4 Rocket 2.4 03:38:21 10° NNE 03:43:35 61° ESE 03:45:39 36° SSE
ARIANE 5 R/B 3.1 03:39:28 10° NNE 03:44:37 53° E 03:46:57 30° SSE
Cosmos 1842 Rocket 4.2 03:48:05 40° WNW 03:48:10 40° WNW 03:52:18 10° N
IRS-P3 4.2 03:47:43 10° N 03:53:00 61° WNW 03:54:31 43° SW
Helios 1A Rocket 3.4 03:49:18 10° N 03:53:12 43° WNW 03:53:25 43° WNW
MOS 1 Rocket 3.5 03:51:00 10° NNE 03:55:19 60° E 03:56:56 36° SSE
Cosmos 1447 Rocket 4.5 03:50:34 10° N 03:56:48 85° E 04:01:17 20° S
Cosmos 1943 Rocket 4.2 03:54:55 10° WNW 03:55:57 12° WNW 03:55:57 12° WNW
Sich 1 3.0 03:53:29 10° N 03:57:55 82° E 03:59:35 37° SSE
SL-27 R/B 3.1 03:57:47 42° SE 03:58:08 44° ESE 04:01:28 10° NE
COSMOS 2406 3.2 03:56:22 41° SSW 03:58:29 84° ESE 04:04:14 10° NNE
Cosmos 1980 Rocket 4.4 03:57:34 10° NNW 04:02:15 26° NE 04:06:56 10° E
Cosmos 1908 3.2 04:02:57 58° W 04:03:09 59° WNW 04:06:58 10° N
AQUA 4.0 03:58:37 10° N 04:03:19 58° WNW 04:04:33 43° WSW
Cosmos 292 Rocket 3.9 04:01:42 39° S 04:03:25 68° ESE 04:08:14 10° NNE
CZ-2D R/B 2.1 03:59:17 10° NNE 04:04:42 88° ESE 04:07:04 35° SSW
Cosmos 1300 3.5 04:03:53 30° SSE 04:05:21 47° E 04:09:03 10° NNE
UNK 3.9 04:05:26 46° SW 04:06:05 49° W 04:10:33 10° NNW
USA 161 4.0 04:08:32 10° E 04:09:15 11° ENE 04:09:56 10° NE
Cosmos 2278 4.0 04:06:58 10° NNW 04:12:38 69° ENE 04:18:16 10° SE
Cosmos 540 Rocket 3.9 04:11:00 34° WSW 04:12:41 46° WNW 04:17:38 10° NNE
Cosmos 2285 Rocket 4.0 04:11:44 31° SSW 04:15:04 87° WNW 04:21:32 10° NNE
IRS-1D 3.5 04:10:04 10° NNE 04:15:14 79° WNW 04:17:40 33° SSW
Cosmos 1697 Rocket 3.8 04:11:40 10° NNW 04:17:08 46° NE 04:22:35 10° SE
OPS 8737 4.4 04:18:23 55° S 04:18:58 71° SE 04:22:19 10° NE
Cosmos 1470 Rocket 3.9 04:17:19 10° N 04:21:38 62° ENE 04:25:55 10° SSE
Cosmos 2173 Rocket 4.4 04:17:42 12° S 04:23:30 62° E 04:29:48 10° NNE
Spot 4 Rocket 4.1 04:19:26 10° N 04:24:35 66° WNW 04:27:04 30° SW
MOZ.5/SAFIR/RUBIN 5/SL-8 3.7 04:23:01 24° S 04:25:47 67° WSW 04:30:30 10° NNW
ADEOS II 3.7 04:23:47 10° NNE 04:28:26 31° E 04:33:04 10° SSE
Cosmos 1633 Rocket 3.1 04:26:37 10° NNW 04:30:55 57° W 04:32:58 29° SSW
Lacrosse 5 1.8 04:27:58 10° WNW 04:33:00 64° SW 04:38:00 10° SE
Cosmos 1515 Rocket 4.2 04:30:44 14° S 04:34:22 54° E 04:38:43 10° NNE
ADEOS 3.6 04:31:50 10° N 04:37:03 70° WNW 04:40:13 24° SSW
Cosmos 1726 2.3 04:36:31 37° SW 04:37:37 51° WNW 04:41:18 10° N
Gblst 52 Del rocket 4.4 04:33:18 14° W 04:38:26 72° N 04:43:58 10° E
Cosmos 2082 Rocket 3.5 04:36:20 10° S 04:41:24 36° ESE 04:46:31 10° NE
Cosmos 1459 Rocket 4.0 04:37:03 13° S 04:42:33 84° E 04:48:38 10° N
Cosmos 2228 Rocket 3.2 04:39:48 18° S 04:43:09 79° E 04:47:35 10° NNE
Cosmos 1315 Rocket 3.8 04:45:07 10° NNW 04:48:36 28° W 04:49:25 26° WSW
SL-16 R/B 3.5 04:49:49 21° SW 04:52:16 27° W 04:57:27 10° NW
Cosmos 1328 Rocket 3.5 04:54:14 19° SSW 04:57:12 66° WNW 05:01:34 10° N
Cosmos 2221 4.2 04:57:36 16° W 04:59:04 19° WNW 05:02:11 10° NNW
ATLAS 2AS CENTAUR R/B 3.6 04:51:00 10° NW 04:59:05 62° NE 05:06:40 10° ESE
Cosmos 1892 2.6 04:56:39 10° NNW 05:00:30 82° W 05:04:20 10° S
Cosmos 1656 3.6 04:54:54 10° NNW 05:00:35 70° WSW 05:06:15 10° SSE
Meteor 2-3 Rocket 3.7 04:56:15 10° NNW 05:01:56 82° W 05:07:37 10° S
NOSS 3-1 (A) 4.3 04:58:13 10° NW 05:05:21 46° WSW 05:13:11 10° S
Cosmos 1825 4.0 05:04:22 10° N 05:07:53 34° ENE 05:11:23 10° SE
Cosmos 2369 3.9 05:02:37 10° NW 05:08:04 49° WSW 05:13:29 10° S
Meteor 2-10 4.3 05:03:35 15° SSW 05:08:19 59° WNW 05:13:51 10° N
UNKNOWN OBJECT B 3.4 05:04:43 10° N 05:08:35 43° WNW 05:11:19 18° SW
Cosmos 1538 Rocket 4.3 05:07:14 17° SW 05:11:19 56° WNW 05:16:37 10° NNE
Cosmos 2322 Rocket 4.3 05:07:50 10° NNW 05:12:52 31° NE 05:17:51 10° ESE
Cosmos 1933 Rocket 3.9 05:11:14 10° NNW 05:15:29 44° W 05:19:42 10° SSW
Cosmos 923 Rocket 4.0 05:14:46 10° SSW 05:20:00 88° ESE 05:25:18 10° NNE
Cosmos 2061 Rocket 4.2 05:14:12 10° SSW 05:20:34 61° WNW 05:26:57 10° N
Cosmos 1151 Rocket 3.1 05:18:18 10° SSW 05:22:33 61° WNW 05:26:48 10° N
Resurs 1-4 Rocket 3.4 05:18:53 10° N 05:23:02 24° WNW 05:26:43 12° WSW
Cosmos 1624 Rocket 4.4 05:18:00 10° NNW 05:23:17 69° ENE 05:28:29 10° SSE
ARIANE 5 R/B 3.7 05:19:06 10° N 05:23:27 27° WNW 05:27:17 12° WSW
SL-16 R/B 4.0 05:20:11 10° NNW 05:25:27 37° NE 05:30:41 10° ESE
CZ-2D R/B 4.3 05:22:02 10° N 05:25:38 32° WNW 05:28:41 13° SW
Cosmos 2016 Rocket 4.0 05:20:26 10° SSW 05:26:30 67° WNW 05:32:36 10° N
Meteor 1-27 4.2 05:27:46 10° SSW 05:33:23 67° WNW 05:38:58 10° N
SL-27 R/B 4.4 05:31:28 11° W 05:33:37 17° NW 05:35:56 10° NNW
Cosmos 1833 Rocket 2.8 05:28:02 10° SSW 05:33:42 83° ESE 05:39:23 10° NNE
Cosmos 1864 Rocket 4.5 05:28:22 10° SSW 05:34:38 81° W 05:40:52 10° N
CZ-4B R/B 3.2 05:33:14 10° NNE 05:37:44 89° WNW 05:42:17 10° SSW
Cosmos 1680 Rocket 3.6 05:32:31 10° SSW 05:37:50 85° WNW 05:43:12 10° NNE
Cosmos 1707 Rocket 4.3 05:34:28 10° S 05:38:47 56° E 05:43:05 10° NNE
USA 161 2.7 05:38:55 12° W 05:38:55 12° W 05:39:45 10° WNW
Okean O Rocket 1.8 05:34:43 10° NNE 05:39:11 78° ESE 05:43:35 10° S
Cosmos 1725 Rocket 4.0 05:35:17 10° SSW 05:41:27 72° W 05:47:39 10° N
Tiangong 2 2.9 05:40:44 10° SW 05:43:14 21° SSE 05:45:43 10° ESE
CZ-2D R/B 3.8 05:40:32 10° NNW 05:44:04 18° NW 05:47:34 10° W
Cosmos 2112 Rocket 4.1 05:40:05 10° SSW 05:45:26 86° WNW 05:50:50 10° NNE
Cosmos 1980 Rocket 2.2 05:41:13 10° NNW 05:46:49 72° WSW 05:52:24 10° SSE
CZ-2C R/B 3.8 05:43:19 10° SSE 05:47:46 84° ENE 05:52:19 10° NNW
Shenzhou-11 Module 3.7 05:46:04 10° SW 05:48:33 22° S 05:51:02 10° ESE
